User: anonymous   Login
Location: Unspecified
(0.0000°N, 0.0000°E)
Time: 11:06:03
(UTC+00:00)
Language:

TBA - TO BE ASSIGNED - Orbit

View from above orbital plane
View from above orbital plane
View from above satellite
View from above satellite

Ground track
Ground track

The orbit is defined by the following mean orbital elements,

1 67469U          26145.35541664 +.00000000 +00000-0 +58187-3 0 00009
2 67469  43.0044 132.5612 0002929 269.6681  90.3835 15.27601477    07
Epoch (UTC): 25 May 2026 08:31:47
Eccentricity: 0.0002929
inclination: 43.0044°
perigee height: 481 km
apogee height: 485 km
right ascension of ascending node: 132.5612°
argument of perigee: 269.6681°
revolutions per day: 15.27601477
mean anomaly at epoch: 90.3835°

The dashed part of the orbit path shows where the satellite is in the earth's shadow,  

DLR